Location: Auckland
(36.8670°S, 174.7670°E)
Time: 16:14:03
(UTC+12:00)

Tiros 1 - Visible Passes

Search period start: 24 July 2019 00:00
Search period end: 03 August 2019 00:00
Orbit: 630 x 664 km, 48.4° (Epoch: 23 July)

Date Brightness Start Highest point End Pass type
(mag) Time Alt. Az. Time Alt. Az. Time Alt. Az.
24 Jul 10.1 04:10:16 13° ESE 04:10:16 13° ESE 04:10:54 10° ESE visible
24 Jul 7.0 05:47:57 42° SW 05:49:32 89° NW 05:54:15 10° NE visible
25 Jul 9.1 04:35:30 26° E 04:35:30 26° E 04:37:49 10° E visible
25 Jul 7.8 06:13:11 23° W 06:15:30 39° NW 06:19:52 10° NNE visible
26 Jul 7.9 05:00:48 49° ENE 05:00:48 49° ENE 05:04:15 10° NE visible
26 Jul 8.9 06:38:30 10° W 06:41:15 16° NW 06:44:10 10° N visible
27 Jul 7.8 05:26:11 40° NNW 05:26:11 40° NNW 05:29:57 10° NNE visible
28 Jul 10.1 04:13:57 12° ENE 04:13:57 12° ENE 04:14:14 10° ENE visible
28 Jul 8.8 05:51:39 18° NW 05:51:39 18° NW 05:54:27 10° N visible
29 Jul 9.7 04:39:29 13° NNE 04:39:29 13° NNE 04:40:02 10° NNE visible
30 Jul 9.0 19:09:17 10° N 19:11:17 16° NE 19:11:17 16° NE visible
31 Jul 8.2 19:33:38 10° NNW 19:36:51 33° N 19:36:51 33° N visible
01 Aug 9.0 18:19:35 10° NNE 18:22:20 15° NE 18:24:40 11° E visible
01 Aug 8.2 19:59:16 10° NW 20:02:22 41° NW 20:02:22 41° NW visible
02 Aug 7.9 18:43:43 10° NNW 18:48:04 36° NE 18:50:07 24° E visible
02 Aug 9.2 20:25:38 10° WNW 20:27:49 25° W 20:27:49 25° W visible
